Regional Weather Roundup
Issued by NWS

Home | Current Version | Previous Version | Graphics & Text | Print | Product List | Glossary On
Versions: 1 2 3 4 5 6 7 8 9 10 11 12 13 14 15 16 17 18 19 20 21 22 23 24 25 26 27 28 29 30 31 32 33 34 35 36 37 38 39 40 41 42 43 44 45 46 47 48 49 50
000
ASUS43 KLMK 280210
RWRKY
KENTUCKY REGIONAL WEATHER ROUNDUP
NATIONAL WEATHER SERVICE LOUISVILLE KY
1000 PM EDT THU JUL 27 2017

NOTE "FAIR" INDICATES FEW OR NO CLOUDS BELOW 12,000 FEET
WITH NO SIGNIFICANT WEATHER AND/OR OBSTRUCTIONS TO VISIBILITY.

KYZ001>023-026-027-061>063-070>075-280300-
WESTERN AND SOUTH CENTRAL KENTUCKY

CITY           SKY/WX    TMP DP  RH WIND       PRES   REMARKS
PADUCAH        CLOUDY    79  74  84 CALM      29.87S
HENDERSON      CLOUDY    75  74  96 S5        29.87S
OWENSBORO      CLOUDY    75  73  93 S6        29.87S
HOPKINSVILLE   MOCLDY    73  73 100 SE5       29.89F
BOWLING GREEN  CLOUDY    76  74  93 SW9       29.91S
GLASGOW        CLOUDY    73  73 100 CALM      29.91S
$$

KYZ024-025-028>034-038-045-046-053-280300-
NORTH CENTRAL KENTUCKY

CITY           SKY/WX    TMP DP  RH WIND       PRES   REMARKS
LOUISVILLE/SDF CLOUDY    81  74  79 SW9       29.87S
LOUISVILLE/LOU CLOUDY    82  77  84 S9        29.88R HX  90
FORT KNOX      MOCLDY    74  72  93 S3        29.87F
$$

KYZ035>037-039>044-047>052-055>060-089>105-280300-
NORTHEAST KENTUCKY

CITY           SKY/WX    TMP DP  RH WIND       PRES   REMARKS
LEXINGTON      LGT RAIN  73  70  90 S13       29.91F
COVINGTON      LGT RAIN  73  73 100 W3        29.88F
FRANKFORT      MOCLDY    75  70  84 SW8       29.89S
$$

KYZ054-064>069-076>088-106>120-280300-
SOUTHEAST KENTUCKY

CITY           SKY/WX    TMP DP  RH WIND       PRES   REMARKS
JACKSON        CLOUDY    70  69  97 CALM      29.96R FOG
LONDON         LGT RAIN  71  69  93 SE3       29.97S
SOMERSET       LGT RAIN  70  70 100 CALM      29.97S
MIDDLESBORO    HVY RAIN  72  72 100 CALM      30.00R
MONTICELLO     LGT RAIN  73  72  96 VRB3      29.97S
$$





USA.gov is the U.S. government's official web portal to all federal, state and local government web resources and services.